�������l�o���
Date,Time,MP-1(��Sv/h),MP-2(��Sv/h),MP-3(��Sv/h),MP-4(��Sv/h),MP-5(��Sv/h),MP-6(��Sv/h),MP-7(��Sv/h),MP-8(��Sv/h),����,����(m/s),���J
2017/02/18,00:00,1.061,1.783,1.184,2.051,1.434,0.560,1.025,0.950,�k�k��,3.9,��
2017/02/18,00:10,1.063,1.782,1.183,2.051,1.435,0.558,1.026,0.950,�k�k��,2.6,��
2017/02/18,00:20,1.061,1.780,1.184,2.054,1.434,0.560,1.028,0.950,�k�k��,4.5,��
2017/02/18,00:30,1.060,1.783,1.183,2.051,1.431,0.560,1.026,0.950,�k,5.0,��
2017/02/18,00:40,1.060,1.782,1.182,2.046,1.434,0.560,1.025,0.950,�k�k��,7.6,��
2017/02/18,00:50,1.061,1.780,1.182,2.049,1.431,0.559,1.027,0.949,�k��,7.4,��
2017/02/18,01:00,1.059,1.781,1.184,2.048,1.433,0.560,1.024,0.949,�k��,7.6,��
2017/02/18,01:10,1.062,1.777,1.183,2.049,1.432,0.559,1.024,0.949,���k��,9.5,��
2017/02/18,01:20,1.061,1.782,1.181,2.049,1.431,0.559,1.025,0.949,���k��,8.9,��
2017/02/18,01:30,1.059,1.782,1.185,2.052,1.433,0.559,1.025,0.950,���k��,9.1,��
2017/02/18,01:40,1.060,1.781,1.184,2.047,1.431,0.558,1.024,0.949,���k��,9.9,��
2017/02/18,01:50,1.060,1.782,1.183,2.050,1.432,0.558,1.024,0.949,���k��,9.5,��
2017/02/18,02:00,1.061,1.779,1.183,2.049,1.431,0.559,1.023,0.950,���k��,8.6,��
2017/02/18,02:10,1.063,1.781,1.180,2.050,1.429,0.559,1.024,0.948,�k��,6.2,��
2017/02/18,02:20,1.059,1.780,1.181,2.048,1.432,0.559,1.023,0.951,���k��,6.8,��
2017/02/18,02:30,1.058,1.780,1.182,2.049,1.428,0.557,1.022,0.949,�k��,4.4,��
2017/02/18,02:40,1.058,1.780,1.182,2.046,1.428,0.558,1.023,0.949,���k��,2.9,��
2017/02/18,02:50,1.058,1.784,1.182,2.048,1.431,0.559,1.022,0.950,�k��,6.4,��
2017/02/18,03:00,1.058,1.780,1.184,2.047,1.430,0.558,1.025,0.948,�k��,6.1,��
2017/02/18,03:10,1.059,1.781,1.182,2.047,1.430,0.557,1.022,0.950,�k��,10.4,��
2017/02/18,03:20,1.056,1.780,1.182,2.046,1.432,0.559,1.024,0.949,�k��,8.9,��
2017/02/18,03:30,1.059,1.781,1.183,2.049,1.432,0.558,1.023,0.949,�k��,10.7,��
2017/02/18,03:40,1.059,1.779,1.182,2.048,1.430,0.558,1.022,0.949,���k��,10.1,��
2017/02/18,03:50,1.058,1.780,1.183,2.048,1.430,0.557,1.025,0.950,���k��,5.8,��
2017/02/18,04:00,1.058,1.781,1.183,2.047,1.430,0.555,1.024,0.949,���k��,8.6,��
2017/02/18,04:10,1.057,1.779,1.183,2.053,1.433,0.555,1.025,0.949,���k��,9.1,��
2017/02/18,04:20,1.057,1.779,1.182,2.048,1.432,0.555,1.023,0.949,���k��,8.4,��
2017/02/18,04:30,1.058,1.778,1.182,2.048,1.430,0.557,1.023,0.949,���k��,9.5,��
2017/02/18,04:40,1.057,1.780,1.181,2.050,1.429,0.558,1.023,0.951,�k��,7.7,��
2017/02/18,04:50,1.059,1.779,1.180,2.045,1.430,0.557,1.023,0.948,�k��,7.8,��
2017/02/18,05:00,1.057,1.781,1.180,2.051,1.430,0.555,1.024,0.951,�k��,6.9,��
2017/02/18,05:10,1.056,1.780,1.180,2.045,1.428,0.558,1.024,0.949,�k��,7.7,��
2017/02/18,05:20,1.060,1.779,1.181,2.048,1.431,0.559,1.021,0.951,�k��,7.6,��
2017/02/18,05:30,1.056,1.777,1.181,2.046,1.431,0.558,1.022,0.950,�k��,8.6,��
2017/02/18,05:40,1.057,1.778,1.181,2.047,1.432,0.556,1.022,0.946,�k��,7.3,��
2017/02/18,05:50,1.055,1.780,1.182,2.053,1.428,0.556,1.025,0.948,�k��,7.8,��
2017/02/18,06:00,1.055,1.779,1.184,2.049,1.429,0.557,1.023,0.949,�k��,5.2,��
2017/02/18,06:10,1.057,1.776,1.182,2.050,1.430,0.558,1.022,0.949,�k��,6.3,��
2017/02/18,06:20,1.058,1.778,1.182,2.048,1.428,0.558,1.022,0.949,�k��,6.1,��
2017/02/18,06:30,1.056,1.781,1.181,2.051,1.428,0.557,1.023,0.948,�k��,4.9,��
2017/02/18,06:40,1.055,1.777,1.182,2.047,1.431,0.558,1.024,0.949,�k��,5.8,��
2017/02/18,06:50,1.057,1.780,1.179,2.049,1.429,0.557,1.023,0.949,�k��,5.4,��
2017/02/18,07:00,1.057,1.781,1.180,2.050,1.431,0.556,1.021,0.948,�k��,4.9,��
2017/02/18,07:10,1.057,1.780,1.182,2.046,1.431,0.557,1.022,0.950,�k��,4.7,��
2017/02/18,07:20,1.058,1.779,1.181,2.047,1.430,0.559,1.023,0.949,�k��,5.8,��
2017/02/18,07:30,1.059,1.781,1.182,2.051,1.430,0.558,1.024,0.949,�k��,4.7,��
2017/02/18,07:40,1.060,1.780,1.184,2.049,1.430,0.557,1.022,0.950,�k��,4.6,��
2017/02/18,07:50,1.060,1.776,1.183,2.050,1.430,0.557,1.022,0.948,�k��,3.3,��
2017/02/18,08:00,1.061,1.778,1.178,2.050,1.428,0.557,1.024,0.948,�k��,3.3,��
2017/02/18,08:10,1.058,1.782,1.185,2.051,1.430,0.558,1.024,0.948,�k��,3.5,��
2017/02/18,08:20,1.059,1.782,1.183,2.050,1.430,0.558,1.024,0.950,�k��,2.3,��
2017/02/18,08:30,1.059,1.780,1.184,2.050,1.431,0.558,1.024,0.949,�k�k��,0.9,��
2017/02/18,08:40,1.059,1.784,1.182,2.053,1.430,0.556,1.023,0.949,�k�k��,2.6,��
2017/02/18,08:50,1.060,1.780,1.183,2.048,1.434,0.557,1.023,0.950,�k�k��,3.8,��
2017/02/18,09:00,1.058,1.782,1.185,2.054,1.432,0.557,1.025,0.950,�k�k��,2.6,��
2017/02/18,09:10,1.062,1.783,1.187,2.052,1.431,0.557,1.023,0.951,�k�k��,2.3,��
2017/02/18,09:20,1.062,1.783,1.184,2.050,1.433,0.556,1.024,0.949,��,1.4,��
2017/02/18,09:30,1.062,1.781,1.185,2.051,1.431,0.560,1.024,0.949,���k��,3.1,��
2017/02/18,09:40,1.062,1.781,1.184,2.050,1.431,0.559,1.022,0.951,��,3.1,��
2017/02/18,09:50,1.061,1.782,1.185,2.050,1.428,0.559,1.024,0.950,���쐼,3.2,��
2017/02/18,10:00,1.062,1.780,1.186,2.055,1.432,0.559,1.020,0.950,���k��,3.4,��
2017/02/18,10:10,1.066,1.783,1.187,2.051,1.432,0.559,1.022,0.952,��,4.1,��
2017/02/18,10:20,1.062,1.780,1.187,2.055,1.433,0.559,1.022,0.950,��,5.6,��
2017/02/18,10:30,1.062,1.782,1.189,2.054,1.434,0.560,1.024,0.952,�k�k��,5.7,��
2017/02/18,10:40,1.064,1.783,1.186,2.053,1.433,0.558,1.022,0.952,�k�k��,4.0,��
2017/02/18,10:50,1.063,1.778,1.187,2.051,1.435,0.558,1.022,0.951,�k�k��,4.2,��
2017/02/18,11:00,1.064,1.779,1.190,2.053,1.431,0.559,1.023,0.949,�k�k��,5.5,��
2017/02/18,11:10,1.062,1.779,1.189,2.054,1.436,0.560,1.020,0.950,�k�k��,7.5,��
2017/02/18,11:20,1.064,1.779,1.189,2.055,1.437,0.558,1.021,0.951,�k�k��,6.5,��
2017/02/18,11:30,1.063,1.781,1.186,2.054,1.435,0.560,1.021,0.951,�k�k��,6.4,��
2017/02/18,11:40,1.063,1.780,1.179,2.053,1.435,0.558,1.025,0.950,�k�k��,8.0,��
2017/02/18,11:50,1.064,1.784,1.183,2.055,1.433,0.560,1.022,0.951,�k�k��,8.9,��
2017/02/18,12:00,1.061,1.784,1.184,2.057,1.437,0.558,1.021,0.950,�k�k��,9.4,��
2017/02/18,12:10,1.063,1.787,1.185,2.054,1.437,0.560,1.022,0.952,�k�k��,9.0,��
2017/02/18,12:20,1.064,1.786,1.188,2.055,1.433,0.559,1.022,0.949,�k�k��,7.5,��
2017/02/18,12:30,1.062,1.783,1.188,2.055,1.438,0.557,1.023,0.950,�k�k��,7.7,��
2017/02/18,12:40,1.063,1.787,1.186,2.050,1.434,0.560,1.024,0.950,�k,7.0,��
2017/02/18,12:50,1.063,1.785,1.186,2.052,1.436,0.560,1.022,0.949,�k,6.4,��
2017/02/18,13:00,1.064,1.785,1.185,2.058,1.433,0.559,1.024,0.951,�k�k��,6.8,��
2017/02/18,13:10,1.064,1.785,1.187,2.055,1.436,0.559,1.025,0.951,�k�k��,6.8,��
2017/02/18,13:20,1.064,1.785,1.184,2.055,1.436,0.561,1.023,0.951,�k�k��,6.1,��
2017/02/18,13:30,1.064,1.785,1.187,2.055,1.433,0.561,1.025,0.951,�k,6.6,��
2017/02/18,13:40,1.064,1.787,1.187,2.054,1.436,0.561,1.025,0.953,�k,7.1,��
2017/02/18,13:50,1.065,1.786,1.187,2.055,1.439,0.560,1.023,0.950,�k,5.7,��
2017/02/18,14:00,1.065,1.785,1.184,2.055,1.439,0.560,1.023,0.949,�k,6.2,��
2017/02/18,14:10,1.063,1.786,1.183,2.056,1.438,0.560,1.024,0.952,�k�k��,7.0,��
2017/02/18,14:20,1.063,1.784,1.187,2.058,1.439,0.560,1.024,0.951,�k,5.4,��
2017/02/18,14:30,1.066,1.786,1.185,2.056,1.437,0.560,1.024,0.952,�k,4.3,��
2017/02/18,14:40,1.066,1.782,1.187,2.055,1.439,0.560,1.024,0.952,�k�k��,5.3,��
2017/02/18,14:50,1.065,1.787,1.188,2.055,1.437,0.560,1.025,0.951,�k�k��,4.1,��
2017/02/18,15:00,1.066,1.788,1.186,2.057,1.436,0.562,1.023,0.950,�k�k��,4.8,��
2017/02/18,15:10,1.065,1.787,1.189,2.057,1.438,0.561,1.024,0.952,�k�k��,5.0,��
2017/02/18,15:20,1.067,1.786,1.187,2.059,1.436,0.560,1.025,0.952,�k��,2.3,��
2017/02/18,15:30,1.063,1.786,1.186,2.055,1.436,0.559,1.025,0.954,�k��,1.4,��
2017/02/18,15:40,1.067,1.783,1.188,2.055,1.437,0.560,1.025,0.951,��,2.0,��
2017/02/18,15:50,1.066,1.788,1.187,2.060,1.432,0.561,1.025,0.953,��,7.8,��
2017/02/18,16:00,1.064,1.783,1.189,2.059,1.436,0.559,1.025,0.951,��,7.3,��
2017/02/18,16:10,1.065,1.787,1.192,2.056,1.435,0.559,1.025,0.950,���k��,6.6,��
2017/02/18,16:20,1.066,1.787,1.188,2.054,1.437,0.560,1.024,0.951,��,7.1,��
2017/02/18,16:30,1.066,1.789,1.189,2.057,1.436,0.561,1.024,0.953,��,5.4,��
2017/02/18,16:40,1.064,1.785,1.187,2.055,1.433,0.561,1.023,0.951,��,6.3,��
2017/02/18,16:50,1.062,1.785,1.186,2.057,1.431,0.559,1.024,0.950,��,5.2,��
2017/02/18,17:00,1.062,1.785,1.184,2.055,1.432,0.559,1.025,0.950,��,5.4,��
2017/02/18,17:10,1.065,1.785,1.186,2.054,1.434,0.560,1.025,0.951,��,6.7,��
2017/02/18,17:20,1.064,1.784,1.185,2.055,1.436,0.559,1.025,0.952,��,6.1,��
2017/02/18,17:30,1.063,1.785,1.186,2.057,1.435,0.560,1.026,0.949,��,5.5,��
2017/02/18,17:40,1.063,1.783,1.185,2.054,1.436,0.560,1.025,0.950,��,5.5,��
2017/02/18,17:50,1.063,1.783,1.184,2.053,1.431,0.561,1.025,0.950,��,4.5,��
2017/02/18,18:00,1.063,1.783,1.185,2.054,1.436,0.559,1.025,0.951,�k��,2.9,��
2017/02/18,18:10,1.062,1.782,1.184,2.053,1.433,0.559,1.026,0.950,�k��,2.6,��
2017/02/18,18:20,1.061,1.784,1.183,2.054,1.435,0.559,1.023,0.951,���k��,6.2,��
2017/02/18,18:30,1.063,1.781,1.183,2.055,1.436,0.559,1.024,0.950,���k��,6.2,��
2017/02/18,18:40,1.063,1.782,1.186,2.054,1.437,0.558,1.023,0.948,���k��,7.5,��
2017/02/18,18:50,1.062,1.782,1.183,2.051,1.434,0.559,1.025,0.950,�k��,7.8,��
2017/02/18,19:00,1.061,1.783,1.183,2.055,1.434,0.558,1.024,0.950,�k�k��,7.9,��
2017/02/18,19:10,1.061,1.784,1.185,2.054,1.436,0.558,1.025,0.950,�k�k��,5.8,��
2017/02/18,19:20,1.062,1.782,1.184,2.056,1.436,0.558,1.025,0.949,�k�k��,7.5,��
2017/02/18,19:30,1.060,1.781,1.183,2.053,1.434,0.558,1.024,0.950,�k�k��,7.1,��
2017/02/18,19:40,1.060,1.782,1.182,2.054,1.434,0.558,1.024,0.950,�k�k��,7.9,��
2017/02/18,19:50,1.060,1.783,1.182,2.054,1.436,0.557,1.022,0.951,�k�k��,5.7,��
2017/02/18,20:00,1.060,1.781,1.183,2.051,1.433,0.558,1.026,0.950,�k�k��,5.1,��
2017/02/18,20:10,1.058,1.783,1.185,2.052,1.434,0.558,1.022,0.951,�k��,4.8,��
2017/02/18,20:20,1.059,1.782,1.182,2.054,1.432,0.558,1.024,0.950,�k�k��,6.8,��
2017/02/18,20:30,1.059,1.783,1.183,2.054,1.435,0.558,1.024,0.949,�k�k��,7.7,��
2017/02/18,20:40,1.058,1.785,1.181,2.057,1.431,0.559,1.024,0.950,�k�k��,7.5,��
2017/02/18,20:50,1.059,1.783,1.182,2.054,1.433,0.558,1.024,0.948,�k�k��,7.8,��
2017/02/18,21:00,1.060,1.780,1.184,2.053,1.432,0.559,1.022,0.950,�k�k��,7.0,��
2017/02/18,21:10,1.061,1.783,1.182,2.055,1.433,0.557,1.023,0.949,�k��,8.6,��
2017/02/18,21:20,1.060,1.780,1.183,2.051,1.433,0.559,1.024,0.948,�k��,9.4,��
2017/02/18,21:30,1.058,1.781,1.182,2.053,1.436,0.556,1.024,0.949,�k��,9.6,��
2017/02/18,21:40,1.058,1.781,1.181,2.052,1.435,0.557,1.024,0.949,�k��,8.7,��
2017/02/18,21:50,1.061,1.783,1.179,2.051,1.433,0.557,1.023,0.949,�k��,9.2,��
2017/02/18,22:00,1.058,1.783,1.178,2.052,1.433,0.555,1.024,0.950,�k��,9.6,��
2017/02/18,22:10,1.058,1.782,1.182,2.052,1.431,0.554,1.022,0.953,�k��,10.3,��
2017/02/18,22:20,1.060,1.783,1.179,2.055,1.432,0.557,1.025,0.949,�k��,10.7,��
2017/02/18,22:30,1.059,1.786,1.180,2.052,1.433,0.557,1.024,0.949,�k��,10.6,��
2017/02/18,22:40,1.058,1.781,1.181,2.054,1.431,0.557,1.022,0.949,�k��,9.8,��
2017/02/18,22:50,1.056,1.781,1.181,2.052,1.434,0.557,1.025,0.949,�k��,8.3,��
2017/02/18,23:00,1.056,1.783,1.181,2.051,1.433,0.557,1.024,0.950,���k��,5.1,��
2017/02/18,23:10,1.057,1.783,1.180,2.054,1.432,0.557,1.024,0.950,���k��,3.7,��
2017/02/18,23:20,1.058,1.781,1.181,2.055,1.433,0.558,1.023,0.950,���k��,5.6,��
2017/02/18,23:30,1.058,1.784,1.179,2.056,1.432,0.559,1.022,0.950,���k��,7.4,��
2017/02/18,23:40,1.059,1.782,1.181,2.052,1.434,0.558,1.023,0.949,���k��,6.9,��
2017/02/18,23:50,1.056,1.780,1.183,2.052,1.435,0.558,1.024,0.950,���k��,7.5,��
